Martin Cerny

Scout - Slavia Prague
24 Feb 2027
Mittwoch
Verarbeitung

Persönlichkeit

Anpassungsfähigkeit (1) Ehrgeiz (2) Kontroverse (4) Loyalität (13) Druck (16) Professionalität (4) Fairness (13) Temperament (9)

Profil

Trainerstil Demokratisch
Lizenz Kontinentale A
Entschlossenheit 7
Menschenführung 9
Motivation 13
Disziplin 14
Arbeitszufriedenheit
56%
Ermüdung
0%
Rolle Scout
Gehalt 40.6K p/W
Vertrag 14.03.2027

Leistung

Verhalten Gut
Trainingseffektivität
29%
Spielerentwicklung
45%
Verletzungsprävention
65%
Taktische Umsetzung
55%

Letzte Ereignisse

Vertragsverhandlung begonnen jetzt
Nahm an einer Scouting-Besprechung teil jetzt
Spieler begutachtet 7T her
Spieler begutachtet 7T her
Vertragsverhandlung begonnen 7T her
Spieler begutachtet 7T her
Vertragsverhandlung begonnen 7T her
Spieler begutachtet 7T her

Aktuell beobachtet

178
Spieler Verein Status Fähigkeit Vertrauen Beobachtet Zuletzt beobachtet Letzte Stimme
Arturo Cipriani Astra Aktiv 154 / 144 40% 3 21.02.2027 -
Armel Bella-Kotchap Venezia Aktiv 150 / 138 40% 1 21.02.2027 -
Karel Spáčil Viktoria Plzen Aktiv 141 / 145 40% 10 20.02.2027 -
Teboho Mokoena Mamelodi Sundowns Aktiv 128 / 121 40% 3 19.02.2027 -
Nicolás Romero Minnesota United FC Aktiv 108 / 139 40% 2 19.02.2027 -
Pedro Bicalho Qarabag Aktiv 109 / 126 40% 1 19.02.2027 -
Mykola Shaparenko Dynamo Kyiv Aktiv 142 / 134 40% 1 19.02.2027 -
Ibrahim Tarek Masr El Makasa Aktiv 119 / 126 40% 5 17.02.2027 -
Julian Weigl Al-Qadisiyah Aktiv 144 / 148 40% 3 17.02.2027 -
Oswin Appollis Orlando Pirates Aktiv 118 / 132 40% 3 16.02.2027 -
Emmanuel Boateng Hapoel Tel Aviv Aktiv 111 / 108 40% 1 16.02.2027 -
Ameen Al-Dakhil VfB Stuttgart Aktiv 133 / 140 40% 2 15.02.2027 -
Marlon Gomes Shakhtar Aktiv 142 / 142 40% 4 12.02.2027 -
Kevin Lomónaco Independiente Aktiv 121 / 130 40% 2 12.02.2027 -
Akos Botka Haladas Aktiv 117 / 140 40% 2 10.02.2027 -
Kauã Elias Shakhtar Aktiv 143 / 140 40% 2 09.02.2027 -
Gerónimo Rivera Al Wahda Aktiv 113 / 124 40% 2 09.02.2027 Mehr Infos nötig
Saël Kumbedi VfL Wolfsburg Aktiv 136 / 129 40% 1 09.02.2027 -
Pablo Ramón Racing Club Aktiv 140 / 148 40% 1 09.02.2027 -
Alexis Alégué Zbrojovka Brno Aktiv 131 / 134 40% 2 07.02.2027 -
Igor Diveev Zenit Aktiv 129 / 129 40% 3 06.02.2027 -
Relebohile Mofokeng Orlando Pirates Aktiv 120 / 135 40% 6 05.02.2027 -
Olakunle Olusegun Rostov Aktiv 114 / 118 40% 3 05.02.2027 -
Gianluca Busio Venezia Aktiv 132 / 131 40% 1 05.02.2027 -
Nahuel Ulariaga Al Ahli Aktiv 102 / 119 40% 2 04.02.2027 -
David Pech Mlada Boleslav Aktiv 106 / 126 40% 1 04.02.2027 -
Alexandr Sojka Viktoria Plzen Abgelehnt 120 / 132 40% 1 02.02.2027 Mehr Infos nötig
Soufiane Rahimi Al Ain Aktiv 121 / 139 40% 1 01.02.2027 -
Dan Biton Hapoel Beer Sheva Aktiv 112 / 137 40% 1 01.02.2027 -
Volodymyr Brazhko Dynamo Kyiv Aktiv 120 / 117 40% 1 31.01.2027 -
Samuele Birindelli Monza Aktiv 133 / 109 40% 1 31.01.2027 -
Luke Thomas Leicester City Aktiv 120 / 135 40% 1 27.01.2027 -
Mario Mitaj Al-Ittihad Aktiv 114 / 146 40% 1 25.01.2027 -
Mattia Viti Sampdoria Aktiv 120 / 142 40% 1 25.01.2027 -
Bruno Fuchs Palmeiras Aktiv 134 / 127 40% 1 20.01.2027 -
Michele Collocolo Cremonese Aktiv 115 / 122 40% 1 20.01.2027 -
Mauro Rodrigues Botev Plovdiv Aktiv 114 / 118 40% 1 18.01.2027 -
Mfundo Vilakazi Kaizer Chiefs Aktiv 104 / 111 40% 1 18.01.2027 -
Marko Soldo Sigma Olomouc Aktiv 128 / 131 40% 1 01.01.2027 -
Santiago Luján Al Ain Aktiv 97 / 107 40% 1 01.01.2027 -
Kacper Urbański Gornik Zabrze Aktiv 116 / 128 40% 1 30.12.2026 -
Romano Floriani Mussolini Modena Aktiv 110 / 117 40% 1 30.12.2026 -
Siyanda Ndlovu Hearts of Oak Aktiv 99 / 137 40% 1 30.12.2026 -
Angelo Gattermayer Wolfsberger AC Aktiv 143 / 133 40% 3 29.12.2026 -
Cian Ashford Cardiff City Aktiv 101 / 115 40% 2 29.12.2026 -
Marcelo Flores Tigres Aktiv 110 / 144 40% 3 26.12.2026 -
Talles Costa Esteghlal Aktiv 116 / 123 40% 2 26.12.2026 -
Solomon John Mlada Boleslav Aktiv 113 / 99 40% 2 26.12.2026 -
Pedro Malheiro Al Wasl Aktiv 144 / 138 40% 1 26.12.2026 -
Emi Rodriguez Leon Aktiv 109 / 115 40% 1 25.12.2026 -
Juan Bezerra Zamalek Aktiv 127 / 124 40% 1 22.12.2026 -
Lloyd Jones Charlton Athletic Aktiv 121 / 128 40% 1 22.12.2026 -
Afimico Pululu Al-Hazem Aktiv 128 / 119 40% 4 20.12.2026 -
Youssef Belammari Al Ahly Aktiv 125 / 134 40% 1 20.12.2026 -
Nazar Voloshyn Dynamo Kyiv Aktiv 126 / 119 40% 2 19.12.2026 -
Keagan Zungu SuperSport United Aktiv 114 / 110 40% 1 19.12.2026 -
Kortney Hause Luton Town Aktiv 107 / 124 40% 1 19.12.2026 -
Hélio Varela Maccabi Tel Aviv Aktiv 120 / 114 40% 1 18.12.2026 -
Nicolás Giménez Al Wasl Aktiv 111 / 106 40% 3 16.12.2026 -
Itumeleng Tau Ajax Cape Town Aktiv 120 / 124 40% 2 16.12.2026 -
Khuliso Mudau Mamelodi Sundowns Aktiv 115 / 123 40% 1 16.12.2026 -
Nail Umyarov Spartak Moscow Aktiv 129 / 134 40% 2 15.12.2026 -
Ignacio Vázquez Platense Aktiv 132 / 139 40% 1 15.12.2026 -
David Junuzovic Mattersburg Verloren 144 / 138 40% 2 12.12.2026 -
Franco Ibarra Rosario Central Aktiv 125 / 139 40% 1 11.12.2026 -
Gastón Hernández San Lorenzo Aktiv 142 / 107 40% 1 11.12.2026 -
Cameron Burgess Swansea City Aktiv 112 / 138 40% 2 08.12.2026 -
Kady Borges Qarabag Aktiv 121 / 133 40% 1 08.12.2026 -
Stiven Shpendi Empoli Aktiv 111 / 124 40% 1 08.12.2026 -
Aubrey Modiba Mamelodi Sundowns Aktiv 126 / 111 40% 1 06.12.2026 -
Josh Brownhill Al-Shabab Aktiv 112 / 129 40% 1 06.12.2026 -
Amin Boudri Los Angeles Football Club Aktiv 109 / 115 40% 2 05.12.2026 -
Vinicius Tobias Shakhtar Aktiv 126 / 128 40% 4 05.12.2026 -
Keaton Parks New York City Aktiv 147 / 128 40% 2 03.12.2026 -
Teden Mengi Luton Town Aktiv 109 / 123 40% 1 03.12.2026 -
Douglas Augusto Krasnodar Aktiv 141 / 138 40% 1 02.12.2026 -
Luther Billiat Ajax Cape Town Aktiv 131 / 129 40% 1 30.11.2026 -
César Montes Lokomotiv Moscow Aktiv 116 / 138 40% 1 30.11.2026 -
Tornike Morchiladze HNK Rijeka Aktiv 106 / 109 40% 2 29.11.2026 -
Denis Vavro Viktoria Plzen Aktiv 126 / 133 40% 2 29.11.2026 -
Felipe Peña Biafore Lanús Aktiv 111 / 130 40% 1 29.11.2026 -
Ali Soliman Masr El Makasa Aktiv 113 / 128 40% 1 29.11.2026 -
Ramiro Hernandes Belgrano Aktiv 100 / 114 40% 1 28.11.2026 -
Pedro Zenit Aktiv 118 / 137 40% 5 27.11.2026 -
Dimitar Mitrovski Olimpija Ljubljana Aktiv 106 / 115 40% 1 27.11.2026 -
Victor Lind Hammarby Aktiv 146 / 117 40% 2 24.11.2026 -
Oleksandr Tymchyk Dynamo Kyiv Aktiv 134 / 137 40% 1 23.11.2026 -
Adrián Sánchez Belgrano Aktiv 109 / 135 40% 1 23.11.2026 -
Tormena Krasnodar Aktiv 133 / 121 40% 1 22.11.2026 -
Helinho Toluca Aktiv 150 / 132 40% 2 21.11.2026 -
Serge-Philippe Raux-Yao Rapid Wien Aktiv 125 / 105 40% 1 21.11.2026 -
Christopher Martins Pereira Spartak Moscow Aktiv 132 / 138 40% 2 20.11.2026 -
Rahim Ibrahim Slovan Bratislava Aktiv 114 / 124 40% 1 20.11.2026 -
Mariano Bracamonte Deportivo Riestra Aktiv 109 / 96 40% 1 19.11.2026 -
Tomás O'Connor Gimnasia y Esgrima Aktiv 130 / 131 40% 1 19.11.2026 -
Gabi Kanichowsky Ferencvaros Aktiv 127 / 128 40% 1 17.11.2026 -
Rasmus Carstensen AGF Aktiv 107 / 128 40% 1 16.11.2026 -
Václav Jemelka Viktoria Plzen Aktiv 132 / 118 40% 3 15.11.2026 Beobachten
Patrick Berg Bodo/Glimt Aktiv 164 / 148 40% 1 15.11.2026 -
Andrei Cordea CFR Cluj Aktiv 119 / 106 40% 1 14.11.2026 -
Pedro Henrique Shakhtar Aktiv 118 / 140 40% 1 14.11.2026 -
Erik Botheim Malmo FF Aktiv 130 / 141 40% 1 12.11.2026 -
Ho-yeon Jung Minnesota United FC Aktiv 135 / 105 40% 2 11.11.2026 -
Uran Bislimi Lugano Aktiv 104 / 129 40% 1 11.11.2026 -
Keagan Hlatshwayo SuperSport United Aktiv 102 / 106 40% 1 09.11.2026 -
Lucas Assadi AIK Aktiv 133 / 119 40% 2 07.11.2026 -
Markus Karlsson Hammarby Aktiv 115 / 137 40% 1 07.11.2026 -
Ivan Oblyakov CSKA Moscow Aktiv 137 / 137 40% 1 06.11.2026 -
Andrés Herrera Columbus Crew Aktiv 112 / 112 40% 1 05.11.2026 -
Victor Parada Spartak Moscow Aktiv 116 / 113 40% 1 03.11.2026 -
Suleiman Camara Slovan Bratislava Aktiv 114 / 124 40% 2 02.11.2026 -
Mehdi Hashemnejad Tractor Aktiv 119 / 119 40% 1 02.11.2026 -
Damián Puebla Orenburg Aktiv 109 / 127 40% 3 31.10.2026 -
Beckham Castro Lugano Aktiv 115 / 118 40% 1 31.10.2026 -
Miles Robinson FC Cincinnati Aktiv 154 / 130 40% 1 30.10.2026 -
Leandro Andrade Polissia Aktiv 135 / 120 40% 2 27.10.2026 -
Juan Mosquera Portland Timbers Aktiv 108 / 120 40% 2 27.10.2026 -
Marcel Hartel St. Louis CITY SC Aktiv 110 / 141 40% 1 27.10.2026 -
Mads Bech Sørensen FC Midtjylland Aktiv 110 / 135 40% 1 26.10.2026 -
Jostein Gundersen Bodo/Glimt Aktiv 114 / 143 40% 1 25.10.2026 -
Joseph Aidoo Maccabi Haifa Aktiv 148 / 117 40% 1 25.10.2026 -
Lorenzo Pirola Olympiacos Aktiv 134 / 145 40% 1 23.10.2026 -
Gabriel Pereira FC Copenhagen Aktiv 122 / 134 40% 1 23.10.2026 -
Adrián Marín Orlando City Aktiv 107 / 142 40% 2 21.10.2026 -
Lucas Arce Godoy Cruz Aktiv 110 / 106 40% 1 21.10.2026 -
Patrik Wålemark Lech Aktiv 121 / 112 40% 2 20.10.2026 -
Sota Kitano Red Bull Salzburg Aktiv 102 / 143 40% 1 19.10.2026 -
Cristian Roldan Seattle Sounders Aktiv 137 / 132 40% 1 18.10.2026 -
Marko Brest Olimpija Ljubljana Aktiv 111 / 113 40% 1 17.10.2026 -
Alhassan Yusuf New England Revolution Aktiv 110 / 108 40% 1 15.10.2026 -
Robert Petkovic Zadar Aktiv 114 / 116 40% 1 15.10.2026 -
Milan Vukotić Partizan Aktiv 112 / 108 40% 1 14.10.2026 -
Mateo Silvetti Inter Miami CF Aktiv 131 / 120 40% 1 14.10.2026 -
Miguel Navarro Colorado Rapids Aktiv 115 / 133 40% 1 12.10.2026 -
Tomás Händel Crvena Zvezda Aktiv 125 / 127 40% 1 12.10.2026 -
Birk Risa Molde Aktiv 115 / 104 40% 1 11.10.2026 -
Sergey Pinyaev Lokomotiv Moscow Aktiv 113 / 141 40% 1 11.10.2026 -
Hamzat Ojediran Colorado Rapids Aktiv 129 / 106 40% 1 11.10.2026 -
Juan Manuel Sanabria Real Salt Lake Aktiv 142 / 118 40% 1 08.10.2026 -
Maurice Malone Minnesota United FC Aktiv 118 / 118 40% 1 08.10.2026 -
Filip Kubala Banik Ostrava Aktiv 135 / 108 40% 1 07.10.2026 -
Steven Alzate Atlanta United FC Aktiv 140 / 140 40% 1 05.10.2026 -
Griffin Yow New England Revolution Aktiv 113 / 120 40% 2 04.10.2026 -
Edvin Austbø Viking Aktiv 115 / 124 40% 1 04.10.2026 -
Michal Kohút Banik Ostrava Aktiv 122 / 125 40% 2 02.10.2026 -
Igor Jesus Los Angeles Football Club Aktiv 119 / 125 40% 1 30.09.2026 -
Sebastian Nebyla Jablonec Aktiv 108 / 124 40% 1 29.09.2026 -
Adrian Svanbäck BK Hacken Aktiv 129 / 102 40% 1 25.09.2026 -
Allahyar Sayyadmanesh Lech Aktiv 130 / 134 40% 1 23.09.2026 -
Quinn Sullivan Philadelphia Union Aktiv 130 / 145 40% 2 21.09.2026 -
Majid Dejagah Gostaresh Foulad Aktiv 109 / 119 40% 4 21.09.2026 -
Ibrahim Aliyu Houston Dynamo Aktiv 136 / 118 40% 1 19.09.2026 -
Jacob Shaffelburg Los Angeles Football Club Aktiv 140 / 139 40% 1 19.09.2026 -
Dor Turgeman New England Revolution Aktiv 144 / 125 40% 4 18.09.2026 -
Peter Federico Gornik Zabrze Aktiv 133 / 125 40% 1 15.09.2026 -
Akinkunmi Amoo Ismaily Aktiv 108 / 130 40% 1 13.09.2026 -
Camilo Durán Bloemfontein Celtic Aktiv 110 / 117 40% 1 12.09.2026 -
Conrad Wallem Valerenga Aktiv 108 / 117 40% 1 11.09.2026 -
Ahmed Qasem Nashville SC Aktiv 132 / 107 40% 1 11.09.2026 -
Bienvenue Kanakimana Zbrojovka Brno Aktiv 124 / 110 40% 1 10.09.2026 -
Indiana Vassilev Philadelphia Union Aktiv 133 / 135 40% 1 10.09.2026 -
Jay Robinson Southampton Aktiv 116 / 122 40% 1 08.09.2026 -
Kerwin Vargas Charlotte Football Club Aktiv 142 / 136 40% 1 08.09.2026 -
Jiří Boula Banik Ostrava Aktiv 115 / 116 40% 1 07.09.2026 -
Haissem Hassan Bloemfontein Celtic Aktiv 138 / 131 40% 2 04.09.2026 -
Kirill Glebov CSKA Moscow Aktiv 111 / 133 40% 1 25.08.2026 -
Matvey Kislyak CSKA Moscow Aktiv 143 / 148 40% 1 16.08.2026 -
Telasco Segovia Inter Miami CF Aktiv 134 / 150 40% 1 14.08.2026 -
Kenji Cabrera Vancouver Whitecaps Aktiv 120 / 123 40% 1 14.08.2026 -
André Luiz Sporting Kansas City Aktiv 126 / 126 40% 1 13.08.2026 -
Alexander Aravena Portland Timbers Aktiv 117 / 114 40% 3 12.08.2026 -
Diego Luna Real Salt Lake Aktiv 143 / 113 40% 1 12.08.2026 -
Artem Karpukas Zenit Aktiv 110 / 112 40% 1 10.08.2026 -
Lucas Sanabria LA Galaxy Aktiv 130 / 135 40% 1 10.08.2026 -
Jack McGlynn Houston Dynamo Aktiv 122 / 135 40% 1 08.08.2026 -
Nəriman Axundzadə Columbus Crew Aktiv 98 / 107 40% 1 06.08.2026 -
Paxten Aaronson Colorado Rapids Aktiv 153 / 152 40% 1 04.08.2026 -
Musa Barrow Al-Khaleej Aktiv 127 / 153 40% 1 01.08.2026 -